******************************************************************************* JPL/HORIZONS Kohoutek (C/1973 E1) 2024-Sep-13 20:29:08 Rec #:90002032 (+COV) Soln.date: 2021-Apr-15_23:29:22 # obs: 812 (1973-1974) IAU76/J2000 helio. ecliptic osc. elements (au, days, deg., period=Julian yrs): EPOCH= 2442022.5 ! 1973-Dec-06.0000000 (TDB) RMSW= n.a. EC= 1.000007809885518 QR= .1424250322974156 TP= 2442044.9306834741 OM= 258.4894909953879 W= 37.79756893411028 IN= 14.3041449344601 A= -18236.50704838456 MA= -8.9770592705456E-6 ADIST= 9.999999E99 PER= 9.999999E99 N= 4.E-7 ANGMOM= .00918101 DAN= .15912 DDN= 1.35764 L= 295.4167673 B= 8.709349400000001 MOID= .029043 TP= 1973-Dec-28.4306834741 Comet physical (GM= km^3/s^2; RAD= km): GM= n.a. RAD= n.a. M1= 5.8 M2= 9.5 k1= 9. k2= 5. PHCOF= .030 COMET comments 1: soln ref.= JPL#2, data arc: 1973-01-28 to 1974-04-26 2: k1=9., k2=5., phase coef.=0.03; ******************************************************************************* ******************************************************************************* Ephemeris / WWW_USER Fri Sep 13 20:29:08 2024 Pasadena, USA / Horizons ******************************************************************************* Target body name: Kohoutek (C/1973 E1) {source: JPL#2} Center body name: Solar System Barycenter (0) {source: DE441} Center-site name: BODY CENTER ******************************************************************************* Start time : A.D. 1600-Jan-01 00:00:00.0000 TDB Stop time : A.D. 2500-Jan-01 00:00:00.0000 TDB Step-size : 900 calendar years ******************************************************************************* Center geodetic : 0.0, 0.0, 0.0 {E-lon(deg),Lat(deg),Alt(km)} Center cylindric: 0.0, 0.0, 0.0 {E-lon(deg),Dxy(km),Dz(km)} Center radii : (undefined) Keplerian GM : 2.9630927493968080E-04 au^3/d^2 Small perturbers: Yes {source: SB441-N16} Output units : AU-D, deg, Julian Day Number (Tp) Calendar mode : Mixed Julian/Gregorian Output type : GEOMETRIC osculating elements Output format : 10 Reference frame : Ecliptic of J2000.0 ******************************************************************************* Initial IAU76/J2000 heliocentric ecliptic osculating elements (au, days, deg.): EPOCH= 2442022.5 ! 1973-Dec-06.0000000 (TDB) RMSW= n.a. EC= 1.000007809885518 QR= .1424250322974156 TP= 2442044.9306834741 OM= 258.4894909953879 W= 37.79756893411028 IN= 14.3041449344601 Equivalent ICRF heliocentric cartesian coordinates (au, au/d): X=-7.176607165692492E-01 Y= 2.189317234802677E-01 Z=-1.092419637587899E-01 VX= 2.124785674986996E-02 VY=-1.810625626616084E-02 VZ=-1.117975478505453E-03 Comet physical (GM= km^3/s^2; RAD= km): GM= n.a. RAD= n.a. M1= 5.8 M2= 9.5 k1= 9. k2= 5. PHCOF= .030 ******************************************************************************* JDTDB EC QR IN OM W Tp N MA TA A AD PR ******************************************************************************* $$SOE 2305447.500000000 = A.D. 1600-Jan-01 00:00:00.0000 TDB EC= 9.999970787374729E-01 QR= 1.431432106990452E-01 IN= 1.428447673330506E+01 OM= 2.583745049683627E+02 W = 3.784924217831804E+01 Tp= 2442045.244525311049 N = 9.092744873109476E-08 MA= 3.599875795155879E+02 TA= 1.825352558235190E+02 A = 4.900046105415624E+04 AD= 9.800077896510178E+04 PR= 3.959200494722444E+09 2634166.500000000 = A.D. 2500-Jan-01 00:00:00.0000 TDB EC= 9.999221277306185E-01 QR= 1.426445574339144E-01 IN= 1.420892620046930E+01 OM= 2.583439776892360E+02 W = 3.795842534330867E+01 Tp= 2442044.666262557730 N = 1.258017531186254E-05 MA= 2.416926349653551E+00 TA= 1.778302079246752E+02 A = 1.831776042586874E+03 AD= 3.663409440616314E+03 PR= 2.861645335423397E+07 $$EOE ******************************************************************************* TIME Barycentric Dynamical Time ("TDB" or T_eph) output was requested. This continuous coordinate time is equivalent to the relativistic proper time of a clock at rest in a reference frame co-moving with the solar system barycenter but outside the system's gravity well. It is the independent variable in the solar system relativistic equations of motion. TDB runs at a uniform rate of one SI second per second and is independent of irregularities in Earth's rotation. CALENDAR SYSTEM Mixed calendar mode was active such that calendar dates after AD 1582-Oct-15 (if any) are in the modern Gregorian system. Dates prior to 1582-Oct-5 (if any) are in the Julian calendar system, which is automatically extended for dates prior to its adoption on 45-Jan-1 BC. The Julian calendar is useful for matching historical dates. The Gregorian calendar more accurately corresponds to the Earth's orbital motion and seasons. A "Gregorian-only" calendar mode is available if such physical events are the primary interest. REFERENCE FRAME AND COORDINATES Ecliptic at the standard reference epoch Reference epoch: J2000.0 X-Y plane: adopted Earth orbital plane at the reference epoch Note: IAU76 obliquity of 84381.448 arcseconds wrt ICRF X-Y plane X-axis : ICRF Z-axis : perpendicular to the X-Y plane in the directional (+ or -) sense of Earth's north pole at the reference epoch. Symbol meaning [1 au= 149597870.700 km, 1 day= 86400.0 s]: JDTDB Julian Day Number, Barycentric Dynamical Time EC Eccentricity, e QR Periapsis distance, q (au) IN Inclination w.r.t X-Y plane, i (degrees) OM Longitude of Ascending Node, OMEGA, (degrees) W Argument of Perifocus, w (degrees) Tp Time of periapsis (Julian Day Number) N Mean motion, n (degrees/day) MA Mean anomaly, M (degrees) TA True anomaly, nu (degrees) A Semi-major axis, a (au) AD Apoapsis distance (au) PR Sidereal orbit period (day) ABERRATIONS AND CORRECTIONS Geometric osculating elements have NO corrections or aberrations applied. Computations by ... Solar System Dynamics Group, Horizons On-Line Ephemeris System 4800 Oak Grove Drive, Jet Propulsion Laboratory Pasadena, CA 91109 USA General site: https://ssd.jpl.nasa.gov/ Mailing list: https://ssd.jpl.nasa.gov/email_list.html System news : https://ssd.jpl.nasa.gov/horizons/news.html User Guide : https://ssd.jpl.nasa.gov/horizons/manual.html Connect : browser https://ssd.jpl.nasa.gov/horizons/app.html#/x API https://ssd-api.jpl.nasa.gov/doc/horizons.html command-line telnet ssd.jpl.nasa.gov 6775 e-mail/batch https://ssd.jpl.nasa.gov/ftp/ssd/hrzn_batch.txt scripts https://ssd.jpl.nasa.gov/ftp/ssd/SCRIPTS Author : Jon.D.Giorgini@jpl.nasa.gov ******************************************************************************* !$$SOF COMMAND = '1973 E1' TABLE_TYPE = 'ELEMENTS' START_TIME = '1600-01-01' STOP_TIME = '2500-01-01' STEP_SIZE = '900 years' CENTER = '@0' OUT_UNITS = 'AU-D'